Location: Peterborough
(44.3091°N, 78.3197°W)
Time: 16:50:47
(UTC-04:00)

Transit 2A - Pass Details

Date: 24 March 2023
Orbit: 591 x 964 km, 66.7° (Epoch: 04 June)

Event Time Altitude Azimuth Distance (km) Brightness Sun altitude
Rises 08:02:33 0° 252° (WSW) 3,265 8.7 8.7°
Reaches altitude 10° 08:05:18 10° 265° (W) 2,405 8.0 9.1°
Maximum altitude 08:09:52 25° 320° (NW) 1,670 7.5 10.0°
Drops below altitude 10° 08:14:48 10° 15° (NNE) 2,605 8.9 10.8°
Sets 08:17:55 0° 28° (NNE) 3,596 9.7 11.4°
